TimeCDT,TemperatureF,Dew PointF,Humidity,Sea Level PressureIn,VisibilityMPH,Wind Direction,Wind SpeedMPH,Gust SpeedMPH,PrecipitationIn,Events,Conditions,WindDirDegrees,DateUTC
12:15 AM,59.0,32.0,36,29.83,10.0,WSW,9.2,-,N/A,,Clear,240,2012-10-20 05:15:00
12:35 AM,59.0,32.0,36,29.83,10.0,SW,9.2,-,N/A,,Clear,230,2012-10-20 05:35:00
12:55 AM,59.0,33.8,39,29.82,10.0,SW,10.4,-,N/A,,Clear,220,2012-10-20 05:55:00
1:15 AM,59.0,33.8,39,29.82,10.0,SW,9.2,-,N/A,,Clear,220,2012-10-20 06:15:00
1:35 AM,59.0,33.8,39,29.81,10.0,SW,11.5,-,N/A,,Clear,220,2012-10-20 06:35:00
1:55 AM,60.8,35.6,39,29.81,10.0,SSW,11.5,-,N/A,,Clear,210,2012-10-20 06:55:00
2:15 AM,59.0,35.6,42,29.81,10.0,SW,9.2,-,N/A,,Clear,220,2012-10-20 07:15:00
2:35 AM,59.0,35.6,42,29.80,10.0,WSW,8.1,-,N/A,,Clear,240,2012-10-20 07:35:00
2:55 AM,59.0,37.4,45,29.79,10.0,SW,8.1,-,N/A,,Clear,230,2012-10-20 07:55:00
3:15 AM,57.2,37.4,48,29.79,10.0,WSW,6.9,-,N/A,,Clear,250,2012-10-20 08:15:00
3:35 AM,55.4,37.4,51,29.77,10.0,SW,8.1,-,N/A,,Clear,230,2012-10-20 08:35:00
3:55 AM,57.2,37.4,48,29.77,10.0,SW,9.2,-,N/A,,Clear,220,2012-10-20 08:55:00
4:15 AM,55.4,37.4,51,29.76,10.0,SW,5.8,-,N/A,,Clear,230,2012-10-20 09:15:00
4:35 AM,53.6,37.4,54,29.75,10.0,Calm,Calm,-,N/A,,Clear,0,2012-10-20 09:35:00
4:55 AM,55.4,37.4,51,29.75,10.0,Calm,Calm,-,N/A,,Clear,0,2012-10-20 09:55:00
5:15 AM,53.6,37.4,54,29.75,10.0,Calm,Calm,-,N/A,,Clear,0,2012-10-20 10:15:00
5:35 AM,53.6,37.4,54,29.76,10.0,Calm,Calm,-,N/A,,Clear,0,2012-10-20 10:35:00
5:55 AM,51.8,37.4,58,29.76,10.0,Calm,Calm,-,N/A,,Clear,0,2012-10-20 10:55:00
6:15 AM,50.0,39.2,66,29.75,10.0,Calm,Calm,-,N/A,,Clear,0,2012-10-20 11:15:00
6:35 AM,50.0,39.2,66,29.75,10.0,Calm,Calm,-,N/A,,Clear,0,2012-10-20 11:35:00
6:55 AM,48.2,37.4,66,29.75,10.0,Calm,Calm,-,N/A,,Clear,0,2012-10-20 11:55:00
7:15 AM,50.0,37.4,62,29.76,10.0,Calm,Calm,-,N/A,,Clear,0,2012-10-20 12:15:00
7:35 AM,46.4,37.4,71,29.76,10.0,NE,3.5,-,N/A,,Clear,40,2012-10-20 12:35:00
7:55 AM,44.6,37.4,76,29.77,10.0,Calm,Calm,-,N/A,,Clear,0,2012-10-20 12:55:00
8:15 AM,46.4,37.4,71,29.77,10.0,Calm,Calm,-,N/A,,Clear,0,2012-10-20 13:15:00
8:35 AM,46.4,37.4,71,29.77,10.0,Calm,Calm,-,N/A,,Clear,0,2012-10-20 13:35:00
8:55 AM,50.0,37.4,62,29.77,10.0,SSE,3.5,-,N/A,,Clear,160,2012-10-20 13:55:00
9:15 AM,50.0,39.2,66,29.78,10.0,Calm,Calm,-,N/A,,Clear,0,2012-10-20 14:15:00
9:35 AM,53.6,39.2,58,29.79,10.0,Calm,Calm,-,N/A,,Clear,0,2012-10-20 14:35:00
9:55 AM,55.4,39.2,54,29.79,10.0,Calm,Calm,-,N/A,,Clear,0,2012-10-20 14:55:00
10:15 AM,59.0,39.2,48,29.79,10.0,Calm,Calm,-,N/A,,Clear,0,2012-10-20 15:15:00
10:35 AM,59.0,41.0,51,29.79,10.0,Calm,Calm,-,N/A,,Clear,0,2012-10-20 15:35:00
10:55 AM,60.8,41.0,48,29.79,10.0,NE,3.5,-,N/A,,Clear,40,2012-10-20 15:55:00
11:15 AM,62.6,41.0,45,29.79,10.0,North,3.5,-,N/A,,Clear,350,2012-10-20 16:15:00
11:35 AM,62.6,41.0,45,29.79,10.0,NNW,4.6,-,N/A,,Clear,340,2012-10-20 16:35:00
11:55 AM,64.4,41.0,42,29.79,10.0,Calm,Calm,-,N/A,,Clear,0,2012-10-20 16:55:00
12:15 PM,68.0,41.0,37,29.77,10.0,Calm,Calm,-,N/A,,Clear,0,2012-10-20 17:15:00
12:35 PM,69.8,41.0,35,29.77,10.0,Calm,Calm,-,N/A,,Clear,0,2012-10-20 17:35:00
1:15 PM,73.4,41.0,31,29.76,10.0,Calm,Calm,-,N/A,,Clear,0,2012-10-20 18:15:00
1:35 PM,75.2,39.2,27,29.75,10.0,South,3.5,-,N/A,,Clear,170,2012-10-20 18:35:00
1:55 PM,77.0,37.4,24,29.74,10.0,Calm,Calm,-,N/A,,Clear,0,2012-10-20 18:55:00
2:15 PM,77.0,37.4,24,29.73,10.0,Calm,Calm,-,N/A,,Clear,0,2012-10-20 19:15:00
2:35 PM,77.0,37.4,24,29.72,10.0,Calm,Calm,-,N/A,,Clear,0,2012-10-20 19:35:00
2:55 PM,78.8,35.6,21,29.71,10.0,Calm,Calm,-,N/A,,Clear,0,2012-10-20 19:55:00
3:15 PM,78.8,35.6,21,29.70,10.0,West,3.5,-,N/A,,Clear,270,2012-10-20 20:15:00
3:35 PM,80.6,35.6,20,29.69,10.0,Calm,Calm,-,N/A,,Clear,0,2012-10-20 20:35:00
3:55 PM,82.4,35.6,19,29.69,10.0,East,3.5,-,N/A,,Clear,90,2012-10-20 20:55:00
4:15 PM,82.4,35.6,19,29.69,10.0,ESE,5.8,-,N/A,,Clear,110,2012-10-20 21:15:00
4:35 PM,82.4,33.8,17,29.69,10.0,SSE,5.8,-,N/A,,Clear,150,2012-10-20 21:35:00
4:55 PM,82.4,33.8,17,29.69,10.0,SSE,5.8,-,N/A,,Clear,150,2012-10-20 21:55:00
5:15 PM,82.4,33.8,17,29.69,10.0,SSE,5.8,-,N/A,,Clear,160,2012-10-20 22:15:00
5:35 PM,82.4,33.8,17,29.69,10.0,South,8.1,-,N/A,,Clear,190,2012-10-20 22:35:00
5:55 PM,82.4,33.8,17,29.69,10.0,South,8.1,-,N/A,,Clear,180,2012-10-20 22:55:00
6:15 PM,80.6,33.8,18,29.69,10.0,SSE,5.8,-,N/A,,Clear,160,2012-10-20 23:15:00
6:35 PM,78.8,39.2,24,29.69,10.0,SSE,10.4,-,N/A,,Clear,160,2012-10-20 23:35:00
6:55 PM,75.2,41.0,29,29.69,10.0,SSE,6.9,-,N/A,,Clear,150,2012-10-20 23:55:00
7:15 PM,73.4,41.0,31,29.70,10.0,SE,8.1,-,N/A,,Clear,140,2012-10-21 00:15:00
7:35 PM,69.8,41.0,35,29.70,10.0,SSE,6.9,-,N/A,,Clear,160,2012-10-21 00:35:00
7:55 PM,69.8,41.0,35,29.70,10.0,SSE,5.8,-,N/A,,Clear,150,2012-10-21 00:55:00
8:15 PM,68.0,41.0,37,29.70,10.0,SSE,6.9,-,N/A,,Clear,150,2012-10-21 01:15:00
8:35 PM,68.0,41.0,37,29.71,10.0,Calm,Calm,-,N/A,,Clear,0,2012-10-21 01:35:00
8:55 PM,64.4,41.0,42,29.71,10.0,Calm,Calm,-,N/A,,Clear,0,2012-10-21 01:55:00
9:15 PM,64.4,41.0,42,29.72,10.0,Calm,Calm,-,N/A,,Clear,0,2012-10-21 02:15:00
9:35 PM,60.8,41.0,48,29.72,10.0,Calm,Calm,-,N/A,,Clear,0,2012-10-21 02:35:00
9:55 PM,60.8,41.0,48,29.72,10.0,WSW,4.6,-,N/A,,Clear,240,2012-10-21 02:55:00
10:15 PM,62.6,41.0,45,29.72,10.0,Calm,Calm,-,N/A,,Clear,0,2012-10-21 03:15:00
10:35 PM,60.8,41.0,48,29.72,10.0,Calm,Calm,-,N/A,,Clear,0,2012-10-21 03:35:00
10:55 PM,59.0,41.0,51,29.72,10.0,Calm,Calm,-,N/A,,Clear,0,2012-10-21 03:55:00
11:55 PM,57.2,41.0,55,29.72,10.0,Calm,Calm,-,N/A,,Clear,0,2012-10-21 04:55:00